Regional Weather Roundup
Issued by NWS

Home | Current Version | Previous Version | Text Only | Print | Product List | Glossary Off
Versions: 1 2 3 4 5 6 7 8 9 10 11 12 13 14 15 16 17 18 19 20 21 22 23 24 25 26 27 28 29 30 31 32 33 34 35 36 37 38 39 40 41 42 43 44 45 46 47 48 49 50

000
ASUS43 KDTX 191210
RWRMI
MICHIGAN HOURLY REGIONAL WEATHER ROUNDUP
NATIONAL WEATHER SERVICE DETROIT/PONTIAC MI
800 AM EDT SAT APR 19 2014

NOTE: "FAIR" INDICATES FEW OR NO CLOUDS BELOW 12,000 FEET WITH NO
SIGNIFICANT WEATHER AND/OR OBSTRUCTION TO VISIBILITY.

MIZ047>049-052>055-059>063-066>070-074>076-081>083-191300-
SOUTHEAST LOWER MICHIGAN

CITY           SKY/WX    TMP DP  RH WIND       PRES   REMARKS
ADRIAN         SUNNY     36  28  73 E9        30.43R
6HR MIN TEMP:  34; 6HR MAX TEMP:  43;

ALMA           SUNNY     32  28  83 NE6       30.47R
ANN ARBOR      MOSUNNY   35  28  75 NE9       30.43R
BAD AXE        SUNNY     32  32  99 NE5       30.48R
6HR MIN TEMP:  28; 6HR MAX TEMP:  32;

DETROIT CITY   SUNNY     37  28  70 N10       30.45R
6HR MIN TEMP:  34; 6HR MAX TEMP:  39;

DETROIT        MOSUNNY   36  29  75 N9        30.45R
6HR MIN TEMP:  35; 6HR MAX TEMP:  39;

FLINT          SUNNY     35  28  75 NE10      30.46R
6HR MIN TEMP:  32; 6HR MAX TEMP:  35;

GROSSE ILE     SUNNY     37  30  75 N10       30.43R
HILLSDALE      SUNNY     35  30  79 E10       30.41R
6HR MIN TEMP:  34; 6HR MAX TEMP:  44;

HOWELL         SUNNY     33  29  86 NE7       30.44R
6HR MIN TEMP:  31; 6HR MAX TEMP:  35;


CITY           SKY/WX    TMP DP  RH WIND       PRES   REMARKS
JACKSON        SUNNY     34  28  79 NE5       30.43R
6HR MIN TEMP:  31; 6HR MAX TEMP:  41;

LAMBERTVILLE   SUNNY     36  30  80 NE6       30.43R
LANSING        SUNNY     33  29  85 NE8       30.45R
6HR MIN TEMP:  30; 6HR MAX TEMP:  37;

LAPEER         NOT AVBL
MASON          SUNNY     32  30  90 CALM      30.45R
MONROE         SUNNY     36  30  80 NE7       30.42R
MT. CLEMENS    SUNNY     34  30  86 N7        30.44R
6HR MIN TEMP:  30; 6HR MAX TEMP:  34;

PONTIAC        SUNNY     33  28  81 NE12      30.43R
6HR MIN TEMP:  31; 6HR MAX TEMP:  34;

PORT HOPE        N/A     36  32  85 NE13      30.46S
6HR MIN TEMP:  34; 6HR MAX TEMP:  36;

PORT HURON     MOSUNNY   32  30  93 N5        30.46R
TRI CITIES     SUNNY     33  28  81 NE7       30.48R
6HR MIN TEMP:  30; 6HR MAX TEMP:  34;

YPSILANTI      SUNNY     38  29  70 NE10      30.44R
6HR MIN TEMP:  34; 6HR MAX TEMP:  41;

$$
MIZ043>046-050>051-056>058-064>065-071>073-077>080-191300-
SOUTHWEST LOWER MICHIGAN

CITY           SKY/WX    TMP DP  RH WIND       PRES   REMARKS
BATTLE CREEK   SUNNY     35  28  75 E14       30.43R
6HR MIN TEMP:  34; 6HR MAX TEMP:  40;

BENTON HARBOR  SUNNY     36  31  82 E12       30.39R
6HR MIN TEMP:  29; 6HR MAX TEMP:  36;

BIG RAPIDS     SUNNY     30  28  93 CALM      30.46R
6HR MIN TEMP:  25; 6HR MAX TEMP:  32;

COLDWATER      SUNNY     36  30  80 E13       30.41R
6HR MIN TEMP:  35; 6HR MAX TEMP:  40;

HOLLAND        SUNNY     36  29  75 E10       30.43R
6HR MIN TEMP:  35; 6HR MAX TEMP:  39;

GRAND RAPIDS   MOSUNNY   35  28  75 E9        30.44R
6HR MIN TEMP:  33; 6HR MAX TEMP:  37;

KALAMAZOO      SUNNY     36  28  73 E6        30.42R
6HR MIN TEMP:  36; 6HR MAX TEMP:  42;

MARSHALL       SUNNY     33  28  79 E5        30.43R
MUSKEGON       MOSUNNY   34  25  69 E8        30.45R
6HR MIN TEMP:  32; 6HR MAX TEMP:  36;

$$
MIZ016>042-191300-
NORTHERN LOWER MICHIGAN

CITY           SKY/WX    TMP DP  RH WIND       PRES   REMARKS
ALPENA         SUNNY     30  28  92 CALM      30.51R
6HR MIN TEMP:  25; 6HR MAX TEMP:  30;

BEAVER ISLAND  MOSUNNY   30  29  97 E7        30.50R
6HR MIN TEMP:  22; 6HR MAX TEMP:  30;

BELLAIRE       SUNNY     29  28  95 CALM      30.49R
6HR MIN TEMP:  23; 6HR MAX TEMP:  29;

CADILLAC       SUNNY     27  26  96 E6        30.43S
CHARLEVOIX     SUNNY     30  29  97 SE5       30.52R
6HR MIN TEMP:  26; 6HR MAX TEMP:  30;

FRANKFORT      SUNNY     31  28  86 E6        30.47R
GAYLORD        CLOUDY    28  28 100 E5        30.46R
6HR MIN TEMP:  27; 6HR MAX TEMP:  28;

GRAYLING       PTSUNNY   28  28 100 E3        30.47S
6HR MIN TEMP:  18; 6HR MAX TEMP:  28;

HARBOR SPRINGS FOG       30  29  99 E8        30.49S VSB 1/2
HOUGHTON LAKE  CLOUDY    28  27  96 E7        30.47R
6HR MIN TEMP:  24; 6HR MAX TEMP:  29;

MANISTEE       SUNNY     30  27  86 E5        30.47R
OSCODA         SUNNY     32  30  93 N5        30.49R
PELLSTON       FOG       29  28  96 CALM      30.51R VSB 1/2
6HR MIN TEMP:  22; 6HR MAX TEMP:  29;

TRAVERSE CITY  MOSUNNY   28  24  85 CALM      30.48R
6HR MIN TEMP:  24; 6HR MAX TEMP:  30;

$$
MIZ007>008-015-191300-
EASTERN UPPER MICHIGAN

CITY           SKY/WX    TMP DP  RH WIND       PRES   REMARKS
KINROSS        CLOUDY    27  27 100 CALM      30.51R VSB 1/4
6HR MIN TEMP:  25; 6HR MAX TEMP:  30;

MACKINAC ISLAN FOG       27  27 100 E3        30.50S VSB 1/4
6HR MIN TEMP:  26; 6HR MAX TEMP:  28;

NEWBERRY       MOSUNNY   23  22  96 CALM      30.48S
S. S. MARIE    MOSUNNY   26  24  92 CALM      30.51R
6HR MIN TEMP:  24; 6HR MAX TEMP:  31;

$$
MIZ004>006-011>014-085-191300-
CENTRAL UPPER MICHIGAN

CITY           SKY/WX    TMP DP  RH WIND       PRES   REMARKS
MANISTIQUE     MOSUNNY   28  26  95 CALM      30.49R
6HR MIN TEMP:  24; 6HR MAX TEMP:  28;

ESCANABA       PTSUNNY   28  25  86 CALM      30.47S
6HR MIN TEMP:  25; 6HR MAX TEMP:  28;

MENOMINEE      CLOUDY    30  27  86 E7        30.45S
6HR MIN TEMP:  27; 6HR MAX TEMP:  30;

SAWYER-GWINN   MOSUNNY   25  21  86 SW3       30.43S
$$
MIZ001>003-009>011-084-191300-
WESTERN UPPER MICHIGAN

CITY           SKY/WX    TMP DP  RH WIND       PRES   REMARKS
IRON MOUNTAIN  CLOUDY    27  24  89 SE3       30.41F
6HR MIN TEMP:  22; 6HR MAX TEMP:  28;

HOUGHTON       CLOUDY    30  24  78 SE14      30.36F
6HR MIN TEMP:  28; 6HR MAX TEMP:  30;

COPPER HARBOR    N/A     32  26  78 S6        30.40F
6HR MIN TEMP:  23; 6HR MAX TEMP:  32;

IRONWOOD       MOCLDY    34  23  64 SE16G31   30.19F
6HR MIN TEMP:  34; 6HR MAX TEMP:  36;

$$

ABBREVIATIONS USED IN REMARKS
   TC - TEMPERATURE IN CELSIUS
  WCI - WIND CHILL INDEX
   HX - HEAT INDEX
  VSB - VISIBILITY




USA.gov is the U.S. government's official web portal to all federal, state and local government web resources and services.